#timestamp,LO_Frequency,Hit,StdDev 
1608282015.6,286046997.3,Y
1608282035.5,286046998.2,P
1608282055.3,286046999.4,N
1608282075.1,286046999.1,N
1608282095.9,286046998.0,N
1608282115.7,286046997.7,Y
1608282135.5,286046998.9,P
1608282155.4,286046998.4,P
1608282175.2,286046998.8,P
1608282195.0,286047001.1,Y
1608282195.9,286047001.1,P
1608282215.8,286047000.3,N
1608282235.6,286046999.8,N
1608282255.4,286047000.7,N
1608282275.3,286047001.1,N
1608282295.1,286047001.2,N
1608282315.8,286046999.0,N
1608282335.7,286046998.3,N
1608282355.5,286046997.1,N
1608282375.3,286046999.1,N
1608282395.2,286046999.0,N
1608282415.9,286046999.2,N
1608282435.7,286046998.8,N
1608282455.6,286046999.4,N
1608282475.4,286046998.9,N
1608282495.2,286046999.5,N
1608282515.1,286046999.4,N
1608282516.0,286046999.4,N
1608282535.8,286046999.5,N
1608282555.6,286046999.1,N
1608282575.5,286046998.3,N
1608282595.3,286046998.8,N
1608282615.1,286046998.4,N
1608282635.9,286046998.4,N
1608282655.7,286046998.3,N
1608282675.5,286046999.6,N
1608282695.4,286046999.4,N
1608282715.2,286046998.8,N
1608282735.0,286046996.9,Y
1608282735.9,286046996.9,P
1608282755.8,286046996.7,N
1608282775.6,286046997.3,N
1608282795.4,286046997.5,N
1608282815.3,286046995.3,Y
1608282835.1,286046996.9,P
1608282836.0,286046996.9,P
1608282855.8,286046997.1,P
1608282875.7,286046997.4,Y
1608282895.5,286046998.4,P
1608282915.3,286046998.1,N
1608282935.2,286047000.7,N
1608282955.9,286047000.0,N
1608282975.7,286047000.2,N
1608282995.6,286046998.2,N
1608283015.4,286047000.4,N
1608283035.2,286047002.7,N
1608283055.1,286047002.7,N
1608283056.0,286047002.7,N
1608283075.8,286047000.1,N
1608283095.6,286046998.4,N
1608283115.5,286046998.2,N
1608283135.3,286046998.5,N
1608283155.1,286047001.2,N
1608283175.9,286046998.3,N
1608283195.7,286046999.3,N
1608283215.5,286046997.0,N
1608283235.4,286046997.0,N
1608283255.2,286046997.8,N
1608283275.0,286046997.9,N
1608283275.9,286046997.9,N
1608283295.8,286046997.8,N
1608283315.6,286046997.6,N
1608283335.4,286046997.1,N
1608283355.3,286046997.4,N
1608283375.1,286046997.9,N
1608283376.0,286046997.9,N
1608283395.8,286046998.0,N
1608283415.7,286046997.4,N
1608283435.5,286046998.0,N
1608283455.3,286046997.7,N
1608283475.2,286046997.0,N
1608283495.9,286046997.9,N
1608283515.7,286046996.0,N
1608283535.6,286046995.6,N
1608283555.4,286046993.3,Y
1608283575.2,286046997.3,P
1608283595.1,286046996.9,P
1608283596.0,286046996.9,P
1608283615.8,286046997.2,Y
1608283635.6,286046999.4,P
1608283655.5,286046998.9,N
1608283675.3,286047000.7,N
1608283695.1,286046998.9,N
1608283715.9,286046996.8,Y
1608283735.7,286046999.4,P
1608283755.5,286046999.0,P
1608283775.4,286046997.2,P
1608283795.2,286046996.6,Y
1608283815.0,286046999.2,P
1608283815.9,286046999.2,P
1608283835.8,286046996.9,P
1608283855.6,286046998.8,N
1608283875.4,286046999.1,N
1608283895.3,286046999.3,N
1608283915.1,286046999.3,N
1608283916.0,286046999.3,N
1608283935.8,286046999.2,N
1608283955.7,286046999.3,N
1608283975.5,286046996.5,Y
1608283995.3,286046998.1,P
1608284015.2,286046998.8,N
1608284035.9,286046999.0,N
1608284055.7,286046999.4,N
1608284075.6,286046998.3,Y
1608284095.4,286046998.4,P
1608284115.2,286046999.3,P
1608284135.1,286046997.2,P
1608284136.0,286046997.2,Y
1608284155.8,286047001.1,P
1608284175.6,286047002.8,N
1608284195.5,286046999.7,N
1608284215.3,286047000.5,N
1608284235.1,286046998.3,N
1608284255.9,286046999.5,N
1608284275.7,286046998.4,N
1608284295.5,286046998.2,N
1608284315.4,286046998.6,N
1608284335.2,286046998.4,N
1608284355.0,286047001.2,N
1608284355.9,286047001.2,N
1608284375.8,286046999.0,N
1608284395.6,286046998.4,N
1608284415.4,286046999.6,N
1608284435.3,286046997.6,N
1608284455.1,286046995.2,Y
1608284456.0,286046995.2,P
1608284475.8,286046996.8,N
1608284495.7,286046997.2,N
1608284515.5,286046996.7,N
1608284535.3,286046996.6,N
1608284555.2,286046996.7,N
1608284575.9,286046997.7,N
1608284595.7,286046997.4,N
1608284615.6,286046997.7,N
1608284635.4,286046995.5,Y
1608284655.2,286046999.2,P
1608284675.1,286046999.0,N
1608284676.0,286046999.0,N
1608284695.8,286046998.3,N
1608284715.6,286047000.9,N
1608284735.5,286046998.3,N
1608284755.3,286046999.0,N
1608284775.1,286046998.5,N
1608284795.9,286046999.4,N
1608284815.7,286046998.5,N
1608284835.5,286046998.1,N
1608284855.4,286046999.6,N
1608284875.2,286046997.3,Y
1608284895.0,286046996.5,P
1608284895.9,286046996.5,P
1608284915.8,286046998.8,N
1608284935.6,286046999.4,N
1608284955.4,286046999.5,N
1608284975.3,286046999.6,N
1608284995.1,286046998.7,N
1608284996.0,286046998.7,N
1608285015.8,286046998.6,N
1608285035.7,286046999.1,N
1608285055.5,286046999.5,N
1608285075.3,286046999.6,N
1608285095.2,286046997.8,N
1608285115.9,286046997.5,N
1608285135.7,286046997.2,N
1608285155.6,286046995.7,Y
1608285175.4,286046997.2,P
1608285195.2,286046997.5,P
1608285215.1,286046997.5,P
1608285216.0,286046997.5,Y
1608285235.8,286046998.5,P
1608285255.6,286046996.5,P
1608285275.5,286046999.1,N
1608285295.3,286046999.0,N
1608285315.1,286046998.7,N
1608285335.9,286046996.6,Y
1608285355.7,286046998.5,P
1608285375.5,286047000.7,P
1608285395.4,286047000.7,N
1608285415.2,286047000.5,N
1608285435.0,286046999.7,N
1608285435.9,286046999.7,N
1608285455.8,286047002.3,N
1608285475.6,286047000.0,N
1608285495.4,286047000.6,N
1608285515.3,286047000.7,N
1608285535.1,286046999.9,N
1608285536.0,286046999.9,N
1608285555.8,286047000.6,N
1608285575.7,286047000.3,N
1608285595.5,286047000.4,N
